KD5NVR-1 Weather Reports


time (UTC)temp
C
wind
direction
speed
KPH
gust
KPH
rain 1hr
cm
rain 24hr
cm
rain mn
cm
humidity
%
barometer
mb
20260507023018 16 57 4.8 9.7 0.00 1.78 1.78 79 1015.9
20260507022038 16 40 6.4 14.5 0.00 1.78 1.78 77 1015.8
20260507021038 16 308 12.9 19.3 0.00 1.78 1.78 79 1015.7
20260507020039 16 50 4.8 8.0 0.00 1.78 1.78 82 1015.5
20260507015018 16 69 4.8 11.3 0.00 1.78 1.78 81 1015.4
20260507014019 16 49 6.4 12.9 0.00 1.78 1.78 80 1015.3
20260507013016 16 62 3.2 8.0 0.00 1.78 1.78 80 1014.9
20260507012016 17 82 4.8 11.3 0.00 1.78 1.78 79 1014.6
20260507011016 17 73 6.4 14.5 0.00 1.80 1.78 79 1014.5
20260507010036 17 63 8.0 12.9 0.00 1.80 1.78 77 1014.5
20260507005016 18 57 4.8 12.9 0.00 1.80 1.78 76 1014.4
20260507004036 18 77 3.2 8.0 0.00 1.80 1.78 74 1014.3
20260507003017 18 83 3.2 9.7 0.00 1.80 1.78 73 1014.1
20260507002037 19 96 4.8 9.7 0.00 1.80 1.78 71 1014.2
20260507001017 19 102 3.2 8.0 0.00 1.80 1.78 69 1014.1
20260507000016 19 87 3.2 8.0 0.00 1.80 1.78 71 1014.1
20260506235017 19 80 6.4 9.7 0.00 1.80 1.78 69 1014.0
20260506234037 19 82 6.4 11.3 0.00 1.80 1.78 69 1014.0
20260506233017 20 76 3.2 9.7 0.00 1.80 1.78 67 1013.8
20260506232017 20 25 4.8 9.7 0.00 1.80 1.78 66 1013.7
20260506231018 20 22 8.0 12.9 0.00 1.80 1.78 66 1013.6
20260506230018 19 9 6.4 8.0 0.00 1.80 1.78 67 1013.6
20260506225018 18 11 6.4 9.7 0.00 1.80 1.78 68 1013.7
20260506224018 18 29 4.8 14.5 0.00 1.80 1.78 70 1013.7
20260506223018 18 3 6.4 12.9 0.00 1.80 1.78 70 1013.6
20260506222159 18 8 9.7 14.5 0.00 1.80 1.78 69 1013.6
20260506221019 18 358 8.0 12.9 0.00 1.80 1.78 70 1013.6
20260506220016 18 353 6.4 11.3 0.00 1.80 1.78 69 1013.6
20260506215016 17 6 8.0 14.5 0.00 1.80 1.78 72 1013.4
20260506214036 17 11 6.4 11.3 0.00 1.80 1.78 72 1013.6
20260506213016 17 325 12.9 19.3 0.00 1.80 1.78 73 1013.7
20260506212016 17 318 12.9 19.3 0.00 1.80 1.78 73 1014.0
20260506211017 17 317 12.9 17.7 0.00 1.80 1.78 73 1014.0
20260506210017 16 335 6.4 17.7 0.00 1.80 1.78 74 1014.0
20260506205017 16 14 14.5 22.5 0.00 1.80 1.78 75 1014.2
20260506204017 16 334 9.7 17.7 0.00 1.80 1.78 76 1014.2
20260506203057 16 0 16.1 24.1 0.00 1.80 1.78 76 1014.4
20260506202017 15 10 19.3 29.0 0.00 1.80 1.78 77 1014.4
20260506201038 15 9 19.3 27.4 0.00 1.80 1.78 78 1014.6
20260506200017 15 12 20.9 27.4 0.00 1.80 1.78 78 1014.6
20260506195017 15 30 17.7 35.4 0.00 1.80 1.78 79 1014.7
20260506194038 15 7 16.1 27.4 0.00 1.80 1.78 79 1014.9
20260506193018 15 355 14.5 20.9 0.00 1.80 1.78 79 1015.0
20260506192038 14 25 14.5 27.4 0.00 1.80 1.78 80 1015.1
20260506191018 14 13 11.3 22.5 0.00 1.80 1.78 81 1015.3
20260506190019 13 19 11.3 20.9 0.00 1.80 1.78 82 1015.4
20260506185018 13 353 9.7 17.7 0.00 1.80 1.78 81 1015.4
20260506184019 13 347 9.7 14.5 0.00 1.80 1.78 82 1015.4
20260506183019 13 349 11.3 17.7 0.00 1.80 1.78 83 1015.6
20260506182016 13 353 9.7 17.7 0.00 1.80 1.78 84 1015.6
20260506181056 12 344 14.5 20.9 0.00 1.80 1.78 84 1015.7
20260506180016 12 356 14.5 22.5 0.00 1.80 1.78 86 1015.3
20260506175016 12 7 20.9 32.2 0.00 1.80 1.78 86 1015.5
20260506174016 12 4 22.5 29.0 0.00 1.80 1.78 86 1015.5
20260506173017 12 4 20.9 27.4 0.00 1.80 1.78 87 1015.6
20260506172017 12 11 20.9 27.4 0.00 1.80 1.78 88 1015.7
20260506171037 12 17 20.9 27.4 0.00 1.80 1.78 89 1015.8
20260506170017 11 13 24.1 32.2 0.00 1.80 1.78 90 1015.5
20260506165017 11 9 22.5 29.0 0.00 1.80 1.78 90 1015.3
20260506164018 11 12 29.0 37.0 0.00 1.80 1.78 90 1015.3
20260506163017 11 11 24.1 32.2 0.00 1.80 1.78 91 1015.3
20260506162017 11 30 14.5 20.9 0.00 1.80 1.78 90 1015.3
20260506161037 11 8 20.9 25.7 0.00 1.80 1.78 91 1015.0
20260506160018 11 19 19.3 24.1 0.00 1.80 1.78 91 1014.8
20260506155018 11 10 20.9 29.0 0.00 1.80 1.78 91 1014.8
20260506154018 11 10 22.5 30.6 0.00 1.80 1.78 91 1014.7
20260506153018 11 23 19.3 32.2 0.00 1.80 1.78 91 1014.7
20260506152018 11 22 16.1 22.5 0.00 1.80 1.78 92 1014.7
20260506151018 11 26 14.5 24.1 0.00 1.80 1.78 92 1014.4
20260506150021 11 30 8.0 14.5 0.13 1.80 1.78 92 1014.1
20260506145018 11 20 17.7 25.7 0.20 1.80 1.78 91 1013.4
20260506144019 11 31 9.7 17.7 0.28 1.78 1.75 92 1012.8
20260506143016 11 43 6.4 12.9 0.38 1.78 1.75 93 1013.4
20260506142036 11 23 9.7 16.1 0.43 1.78 1.75 93 1014.0
20260506141016 11 38 4.8 9.7 0.46 1.78 1.75 93 1014.2
20260506140016 11 20 19.3 25.7 0.41 1.68 1.65 92 1014.7
20260506135016 11 3 20.9 30.6 0.33 1.57 1.55 90 1015.6
20260506134017 11 21 19.3 25.7 0.25 1.52 1.50 90 1015.4
20260506133017 11 20 24.1 35.4 0.18 1.42 1.40 90 1014.5
20260506132017 11 17 24.1 35.4 0.13 1.37 1.35 89 1014.2
20260506131017 11 20 25.7 33.8 0.10 1.35 1.30 88 1013.8
20260506130017 12 15 30.6 38.6 0.03 1.27 1.24 88 1014.3
20260506125017 12 18 30.6 38.6 0.03 1.27 1.24 87 1013.5
20260506124017 12 15 29.0 40.2 0.03 1.27 1.22 87 1013.5
20260506123018 12 17 29.0 38.6 0.00 1.24 1.22 88 1013.9
20260506122038 12 19 24.1 33.8 0.00 1.24 1.22 87 1013.2
20260506121018 12 29 20.9 29.0 0.00 1.24 1.22 86 1012.9
20260506120018 12 38 17.7 32.2 0.00 1.24 1.22 86 1012.4
20260506115038 12 47 12.9 16.1 0.00 1.22 1.19 86 1012.1
20260506114038 12 48 12.9 17.7 0.00 1.22 1.19 86 1012.1
20260506113018 12 47 14.5 19.3 0.00 1.22 1.19 86 1011.9
20260506112019 12 47 12.9 17.7 0.00 1.22 1.19 86 1012.2
20260506111017 12 48 11.3 16.1 0.00 1.22 1.19 86 1012.4
20260506110017 12 47 11.3 14.5 0.00 1.22 1.19 85 1012.3
20260506105037 12 48 11.3 16.1 0.00 1.22 1.19 86 1012.0
20260506104017 12 48 11.3 14.5 0.00 1.22 1.19 86 1012.1
20260506103016 12 48 11.3 16.1 0.00 1.22 1.19 86 1011.8
20260506102018 12 47 11.3 16.1 0.00 1.22 1.19 86 1011.4
20260506101018 13 47 11.3 14.5 0.00 1.22 1.19 86 1011.3
20260506100016 13 47 11.3 16.1 0.00 1.22 1.19 87 1011.2
20260506095017 13 47 11.3 16.1 0.00 1.22 1.19 86 1011.1
20260506094018 13 48 11.3 14.5 0.00 1.22 1.19 87 1011.1
20260506093038 13 47 9.7 12.9 0.00 1.22 1.19 87 1011.2
20260506092018 13 48 9.7 14.5 0.00 1.22 1.19 87 1011.1
20260506091018 13 48 9.7 14.5 0.00 1.22 1.19 87 1010.8
20260506090018 13 47 9.7 14.5 0.00 1.22 1.19 87 1010.6
20260506085019 13 46 9.7 12.9 0.00 1.22 1.19 86 1010.7
20260506084038 14 22 19.3 27.4 0.00 1.22 1.19 84 1010.6
20260506083038 14 17 20.9 29.0 0.00 1.22 1.19 85 1010.7
20260506082018 14 37 9.7 19.3 0.05 1.22 1.19 85 1010.7
20260506081018 15 42 12.9 24.1 0.25 1.22 1.19 84 1010.6
20260506073016 16 319 22.5 67.6 1.19 1.22 1.19 83 1010.6
20260506072016 16 310 11.3 19.3 1.14 1.17 1.14 83 1010.4
20260506071036 16 320 12.9 20.9 0.97 0.99 0.97 83 1010.3
20260506062017 17 52 8.0 19.3 0.00 0.03 0.00 76 1009.9
20260506061017 17 49 11.3 19.3 0.00 0.03 0.00 75 1009.8
20260506051018 18 47 9.7 22.5 0.00 0.03 0.00 70 1009.7
20260506045018 19 46 9.7 19.3 0.00 0.03 0.03 69 1009.8
20260506044018 19 53 9.7 17.7 0.00 0.03 0.03 69 1009.8
20260506043018 20 52 9.7 17.7 0.00 0.03 0.03 70 1009.9
20260506042019 20 35 9.7 19.3 0.00 0.03 0.03 71 1009.8
20260506041056 20 35 6.4 14.5 0.00 0.03 0.03 70 1009.5
20260506040036 20 50 8.0 16.1 0.00 0.03 0.03 69 1009.2
20260506035036 21 44 9.7 19.3 0.00 0.03 0.03 69 1009.2
20260506034016 21 27 11.3 19.3 0.00 0.03 0.03 68 1009.3
20260506033016 21 29 9.7 16.1 0.00 0.03 0.03 68 1009.1
20260506032016 21 31 9.7 19.3 0.00 0.03 0.03 67 1009.2
20260506031017 21 26 9.7 19.3 0.00 0.03 0.03 67 1009.0
20260506030017 22 22 9.7 17.7 0.00 0.03 0.03 67 1008.9
20260506025017 22 33 8.0 14.5 0.00 0.03 0.03 66 1008.7
20260506024017 22 23 9.7 16.1 0.00 0.03 0.03 68 1008.3